[[{"header":{"parameterUnit":"m.s-1","parameterCategory":1,"la1":30.2991,"la2":30.254,"lo1":-89.0895,"lo2":-89.0444,"dy":0.0017,"dx":0.0017,"nx":28,"ny":28,"refTime":"2025-04-05T09:00:00:Z","depth":0,"parameterNumber":2,"parameterNumberName":"U-component_of_WINDS"},"data":[0,0,0,0,0,0,0,0,0,0,0,0,0,0,0,0,0,0,0,0,0,0,0,0,0,0,0,0,0,0,0,0,0,0,0,0,0,0,0,0,0,0,0,0,0,0,0,0,0,0,0,0,0,0,0,0,0,0,-3.7424,-3.7424,0,-3.7481,-3.7482,-3.7482,-3.7472,-3.7471,-3.747,-3.7469,-3.7529,-3.7531,-3.7533,0,0,0,0,0,0,0,0,0,0,0,0,0,-3.7307,-3.7309,-3.7424,-3.7424,-3.7425,-3.7481,-3.7482,-3.7483,-3.7472,-3.7471,-3.747,-3.7469,-3.7528,-3.7531,-3.7534,0,0,0,0,0,0,0,0,0,0,0,0,0,-3.736,-3.731,-3.7424,-3.7427,-3.7428,-3.7481,-3.7482,-3.7483,-3.7473,-3.7471,-3.747,-3.7468,-3.7527,-3.753,-3.7534,-3.7588,0,0,-3.7546,-3.7547,0,0,0,0,0,0,0,0,-3.7357,-3.7365,-3.7426,-3.7427,-3.7428,-3.7468,-3.7462,-3.7518,-3.7473,-3.7456,-3.7469,-3.7467,-3.751,-3.7515,-3.7529,-3.7591,-3.7593,-3.7546,-3.7548,-3.755,-3.7551,0,0,0,0,0,0,0,-3.7354,-3.7362,-3.7446,-3.7427,-3.7428,-3.7426,-3.7432,-3.7473,-3.749,-3.7457,-3.7456,-3.7463,-3.751,-3.7525,-3.753,-3.7594,-3.7546,-3.7549,-3.7552,-3.7553,-3.7703,-3.7705,0,0,0,0,0,0,-3.7349,-3.7359,-3.7445,-3.7448,-3.7388,-3.7429,-3.7436,-3.7457,-3.749,-3.7494,-3.7465,-3.7463,-3.7519,-3.7526,-3.7532,-3.7597,-3.755,-3.7553,-3.7556,-3.7702,-3.7704,-3.7705,0,0,0,0,0,0,-3.7346,-3.7357,-3.7442,-3.7404,-3.7414,-3.7433,-3.7456,-3.7459,-3.7474,-3.7496,-3.7499,-3.7477,-3.7519,-3.7527,-3.7574,-3.7599,-3.7555,-3.7559,-3.7699,-3.7702,-3.7705,-3.7727,0,0,0,0,0,0,-3.7343,-3.7356,-3.7376,-3.7404,-3.7416,-3.7483,-3.7458,-3.7461,-3.748,-3.7478,-3.7508,-3.7511,-3.7518,-3.7569,-3.7578,-3.7603,-3.7562,-3.7697,-3.7701,-3.7704,-3.7724,-3.773,-3.7735,0,0,0,0,0,-3.7339,-3.738,-3.7377,-3.7387,-3.7442,-3.7484,-3.7491,-3.7498,-3.7482,-3.7503,-3.7517,-3.751,-3.7595,-3.7573,-3.7584,-3.7611,-3.7696,-3.77,-3.7703,-3.7722,-3.7729,-3.7735,0,0,0,0,0,0,-3.7354,-3.7384,-3.738,-3.7432,-3.7456,-3.7482,-3.7508,-3.7505,-3.7534,-3.7531,-3.7538,-3.7545,-3.7593,-3.7607,-3.7582,-3.7665,-3.7643,-3.7649,-3.7654,-3.7661,-3.7666,-3.7661,-3.7565,0,0,0,0,0,-3.7363,-3.7395,-3.7419,-3.7462,-3.7474,-3.749,-3.7508,-3.7511,-3.7536,-3.7546,-3.7564,-3.7589,-3.7621,-3.7642,-3.7673,-3.7727,-3.7733,-3.7751,-3.7756,-3.7761,-3.7765,-3.7795,-3.7803,-3.7718,-3.7718,-3.7718,0,0,-3.7383,-3.7403,-3.7422,-3.7466,-3.7485,-3.7517,-3.7498,-3.7533,-3.7558,-3.7552,-3.7597,-3.7611,-3.764,-3.769,-3.7714,-3.7704,-3.7791,-3.7766,-3.7769,-3.7771,-3.78,-3.7808,-3.7815,-3.7721,-3.772,-3.772,0,0,-3.7435,-3.7454,-3.7491,-3.7511,-3.7539,-3.7549,-3.7559,-3.7586,-3.7595,-3.7641,-3.7637,-3.7667,-3.7722,-3.7743,-3.776,-3.7822,-3.7816,-3.7832,-3.786,-3.7889,-3.7895,-3.7901,-3.7923,-3.793,-3.7837,-3.7837,-3.7837,0,-3.7455,-3.7504,-3.7511,-3.7547,-3.7566,-3.7563,-3.7601,-3.762,-3.7658,-3.7671,-3.7659,-3.7729,-3.7748,-3.7803,-3.7819,-3.7833,-3.7844,-3.7827,-3.7894,-3.79,-3.7906,-3.7926,-3.7934,-3.7838,-3.7838,-3.7838,-3.7838,0,-3.7528,-3.7562,-3.7589,-3.7625,-3.7648,-3.7685,-3.7698,-3.772,-3.7722,-3.7734,-3.7781,-3.7804,-3.7839,-3.7853,-3.7855,-3.7909,-3.7902,-3.7892,-3.787,-3.7915,-3.7934,-3.7942,-3.7841,-3.784,-3.784,-3.7839,0,0,-3.759,-3.763,-3.7639,-3.7656,-3.7688,-3.7715,-3.7752,-3.7787,-3.7806,-3.7832,-3.7864,-3.7912,-3.7903,-3.7923,-3.7928,-3.7953,-3.8,-3.794,-3.7941,-3.795,-3.8061,-3.8067,-3.8076,-3.7998,-3.7999,-3.8,-3.8058,0,-3.7644,-3.7709,-3.7717,-3.7775,-3.7807,-3.7805,-3.7838,-3.7861,-3.7873,-3.7903,-3.7916,-3.795,-3.7936,-3.7948,-3.7974,-3.7989,-3.8022,-3.7985,-3.8027,-3.8028,-3.8018,-3.8086,-3.8092,-3.8146,-3.8066,-3.8067,-3.8068,0,-3.7716,-3.7744,-3.7805,-3.7833,-3.7847,-3.7876,-3.7909,-3.7937,-3.7964,-3.7971,-3.7994,-3.7995,-3.8035,-3.8013,-3.8067,-3.8042,-3.806,-3.807,-3.8072,-3.8075,-3.805,-3.809,-3.8163,-3.8171,-3.808,-3.8079,-3.8078,0,-3.7753,-3.7807,-3.7851,-3.7865,-3.7899,-3.7919,-3.7935,-3.796,-3.7981,-3.801,-3.8023,-3.8057,-3.8075,-3.8101,-3.8112,-3.8095,-3.8166,-3.8144,-3.8172,-3.8172,-3.8186,-3.8185,-3.8262,-3.82,-3.82,-3.8199,-3.8199,0,-3.7812,-3.785,-3.7868,-3.7895,-3.7937,-3.7946,-3.7988,-3.8002,-3.8025,-3.8055,-3.8056,-3.8084,-3.8098,-3.8128,-3.8137,-3.8181,-3.8189,-3.8196,-3.8198,-3.8195,-3.8194,-3.8206,-3.8202,-3.8202,-3.8201,-3.8201,-3.82,0,-3.7861,-3.7875,-3.7922,-3.7951,-3.7959,-3.7988,-3.8013,-3.8039,-3.8052,-3.809,-3.8099,-3.8119,-3.8155,-3.8169,-3.8213,-3.8219,-3.8269,-3.8268,-3.8259,-3.826,-3.8286,-3.8283,-3.8373,-3.8385,-3.8316,-3.8317,-3.8317,0,-3.7897,-3.7926,-3.7958,-3.7977,-3.7993,-3.8025,-3.8046,-3.8057,-3.8079,-3.8113,-3.8135,-3.8171,-3.82,-3.8258,-3.8276,-3.831,-3.831,-3.8339,-3.8315,-3.8311,-3.8309,-3.8307,-3.8309,-3.8343,-3.8343,-3.8344,-3.8344,0,-3.796,-3.7965,-3.7995,-3.8027,-3.8052,-3.8079,-3.8104,-3.8121,-3.8136,-3.8161,-3.8197,-3.822,-3.8265,-3.83,-3.8336,-3.8352,-3.8351,-3.8352,-3.836,-3.8357,-3.8351,-3.8354,-3.827,-3.835,-3.8349,-3.8349,-3.8348,-3.8348,-3.8002,-3.8028,-3.8054,-3.8088,-3.8108,-3.8132,-3.8158,-3.8174,-3.8205,-3.8242,-3.8247,-3.8286,-3.8313,-3.836,-3.8378,-3.841,-3.8402,-3.8414,-3.8417,-3.8419,-3.842,-3.8347,-3.8416,-3.8416,-3.8416,-3.8416,-3.8416,0,-3.8064,-3.8081,-3.8112,-3.8148,-3.8174,-3.8171,-3.82,-3.8222,-3.8256,-3.8282,-3.8311,-3.8353,-3.8388,-3.8409,-3.8445,-3.8466,-3.8466,-3.8474,-3.8472,-3.8476,-3.8426,-3.8415,-3.8473,-3.8473,-3.8473,-3.8473,-3.8473,-3.8473,-3.8099,-3.8142,-3.8151,-3.8204,-3.8221,-3.8259,-3.8276,-3.8298,-3.8318,-3.8365,-3.8394,-3.8408,-3.8432,-3.8469,-3.8501,-3.8507,-3.852,-3.8528,-3.8533,-3.8486,-3.8479,-3.8474,-3.8463,-3.8531,-3.8531,-3.8581,-3.8581,-3.8582]},{"header":{"parameterUnit":"m.s-1","parameterCategory":1,"la1":30.2991,"la2":30.254,"lo1":-89.0895,"lo2":-89.0444,"dy":0.0017,"dx":0.0017,"nx":28,"ny":28,"refTime":"2025-04-05T09:00:00:Z","depth":0,"parameterNumber":3,"parameterNumberName":"V-component_of_WINDS"},"data":[0,0,0,0,0,0,0,0,0,0,0,0,0,0,0,0,0,0,0,0,0,0,0,0,0,0,0,0,0,0,0,0,0,0,0,0,0,0,0,0,0,0,0,0,0,0,0,0,0,0,0,0,0,0,0,0,0,0,6.3833,6.3833,0,6.3818,6.3818,6.3817,6.3732,6.373,6.3728,6.3726,6.3711,6.3712,6.3714,0,0,0,0,0,0,0,0,0,0,0,0,0,6.3791,6.3792,6.3833,6.3833,6.3833,6.3818,6.3818,6.3817,6.3732,6.373,6.3727,6.3725,6.371,6.3712,6.3714,0,0,0,0,0,0,0,0,0,0,0,0,0,6.3796,6.3792,6.3833,6.3788,6.3784,6.3818,6.3818,6.3817,6.3733,6.373,6.3726,6.3724,6.371,6.3712,6.3714,6.379,0,0,6.3721,6.3722,0,0,0,0,0,0,0,0,6.3796,6.3797,6.3795,6.3791,6.3787,6.3773,6.3797,6.3808,6.3733,6.3752,6.3726,6.3722,6.3734,6.3734,6.3738,6.3789,6.3788,6.3721,6.3723,6.3724,6.3724,0,0,0,0,0,0,0,6.3795,6.3798,6.3827,6.3795,6.379,6.377,6.3767,6.3799,6.3761,6.375,6.3744,6.3743,6.3731,6.3736,6.3737,6.3788,6.3721,6.3723,6.3725,6.3725,6.3904,6.3907,0,0,0,0,0,0,6.3801,6.3798,6.3827,6.3826,6.3784,6.3773,6.377,6.3781,6.376,6.3754,6.3746,6.374,6.3734,6.3735,6.3736,6.3826,6.3724,6.3726,6.3727,6.3901,6.3905,6.3909,0,0,0,0,0,0,6.38,6.3804,6.3828,6.3811,6.3812,6.3777,6.379,6.3782,6.3787,6.3757,6.375,6.3758,6.3731,6.3733,6.3778,6.3824,6.3727,6.3729,6.3897,6.3902,6.3907,6.4004,0,0,0,0,0,0,6.38,6.3805,6.3832,6.3812,6.3813,6.3869,6.3793,6.3784,6.3791,6.3782,6.3766,6.376,6.3729,6.3775,6.378,6.3825,6.3731,6.3892,6.3899,6.3905,6.3997,6.4012,6.4025,0,0,0,0,0,6.3798,6.386,6.3834,6.3838,6.3847,6.3872,6.3873,6.3836,6.3795,6.3823,6.3805,6.3761,6.3818,6.378,6.3785,6.3832,6.3889,6.3897,6.3905,6.399,6.4009,6.4025,0,0,0,0,0,0,6.3886,6.3856,6.3827,6.3884,6.3881,6.3858,6.3892,6.3856,6.3865,6.3856,6.381,6.3807,6.3859,6.385,6.3808,6.3906,6.3847,6.3856,6.391,6.3928,6.3941,6.3943,6.3732,0,0,0,0,0,6.3912,6.3935,6.3907,6.396,6.396,6.3927,6.3936,6.3908,6.3903,6.3902,6.3886,6.3884,6.3901,6.3914,6.3928,6.3995,6.3992,6.403,6.4044,6.4056,6.4065,6.4102,6.412,6.3934,6.3933,6.3933,0,0,6.3966,6.3952,6.3969,6.3977,6.3972,6.3998,6.3926,6.3955,6.3974,6.3906,6.3948,6.3937,6.3931,6.3989,6.4013,6.3982,6.4115,6.4066,6.4075,6.4077,6.4112,6.413,6.4145,6.3939,6.3938,6.3937,0,0,6.4077,6.4069,6.4113,6.4109,6.4103,6.408,6.4091,6.4074,6.4064,6.4105,6.4056,6.4078,6.4108,6.4107,6.4111,6.4226,6.4187,6.4232,6.4306,6.4343,6.4358,6.4371,6.4414,6.4429,6.424,6.424,6.4241,0,6.4145,6.4181,6.414,6.4173,6.418,6.412,6.4165,6.4164,6.4163,6.4169,6.4135,6.4174,6.4166,6.4223,6.4252,6.4256,6.4268,6.4233,6.4359,6.4371,6.4383,6.4423,6.4439,6.4246,6.4245,6.4245,6.4244,0,6.4266,6.4292,6.4328,6.433,6.434,6.4379,6.4345,6.4361,6.4332,6.4314,6.4359,6.4348,6.436,6.4371,6.4343,6.4426,6.4408,6.4367,6.4307,6.4407,6.4444,6.4459,6.4254,6.4252,6.425,6.4249,0,0,6.443,6.441,6.4425,6.4426,6.4415,6.4435,6.4473,6.4486,6.4501,6.4502,6.4534,6.4563,6.4526,6.4531,6.4502,6.4535,6.463,6.449,6.449,6.4518,6.4723,6.4755,6.4773,6.4604,6.4607,6.4609,6.4724,0,6.4539,6.4602,6.4568,6.4636,6.4661,6.4606,6.4639,6.4637,6.4622,6.4642,6.4625,6.4647,6.4596,6.4599,6.4628,6.4612,6.467,6.4603,6.4634,6.4636,6.4639,6.4792,6.4825,6.4934,6.4738,6.4741,6.4742,0,6.4673,6.4682,6.4753,6.4741,6.475,6.478,6.4791,6.481,6.4807,6.4794,6.4801,6.4766,6.4803,6.4744,6.4796,6.4751,6.4762,6.4757,6.476,6.4762,6.4696,6.48,6.4968,6.4985,6.4765,6.4763,6.4761,0,6.4789,6.4818,6.4865,6.4868,6.4854,6.4877,6.4873,6.4867,6.4878,6.4887,6.4894,6.4908,6.4916,6.4928,6.4898,6.4856,6.4956,6.4892,6.4947,6.4948,6.4971,6.497,6.5144,6.4976,6.4976,6.4975,6.4975,0,6.4914,6.496,6.4918,6.4947,6.4998,6.4959,6.5011,6.5,6.4997,6.5024,6.4977,6.5004,6.4962,6.4985,6.4962,6.501,6.5013,6.5005,6.4999,6.501,6.5012,6.5017,6.501,6.498,6.4979,6.4978,6.4977,0,6.5052,6.5025,6.5073,6.5057,6.5054,6.5093,6.508,6.5107,6.5089,6.5124,6.5131,6.5103,6.5128,6.51,6.5122,6.5106,6.5173,6.5154,6.5174,6.5169,6.5226,6.5222,6.5412,6.5436,6.5251,6.5252,6.5254,0,6.5134,6.5169,6.5157,6.5172,6.5171,6.5195,6.5207,6.517,6.5184,6.5186,6.5214,6.5235,6.525,6.5293,6.5276,6.5293,6.5276,6.5341,6.5278,6.529,6.5279,6.5278,6.5283,6.5354,6.5357,6.5358,6.536,0,6.5284,6.527,6.5288,6.5303,6.5318,6.5327,6.5333,6.5348,6.5311,6.5329,6.5355,6.5367,6.5391,6.5413,6.5426,6.5422,6.5386,6.538,6.5394,6.5406,6.5417,6.5414,6.5211,6.5376,6.5374,6.5373,6.5372,6.5371,6.5398,6.5427,6.5425,6.5447,6.5448,6.5456,6.5481,6.5468,6.5488,6.5505,6.5483,6.5515,6.5514,6.5529,6.5529,6.5555,6.5527,6.5547,6.5552,6.5558,6.5568,6.5413,6.5557,6.5556,6.5556,6.5555,6.5555,0,6.5547,6.5543,6.5564,6.5575,6.5594,6.5558,6.5564,6.5582,6.5611,6.5613,6.563,6.5661,6.5683,6.5668,6.5688,6.5711,6.5695,6.5718,6.5716,6.5717,6.559,6.5577,6.5731,6.573,6.573,6.573,6.573,6.573,6.5627,6.5676,6.5662,6.5712,6.5707,6.5739,6.5746,6.5753,6.5755,6.5792,6.581,6.5801,6.5797,6.5816,6.5836,6.5831,6.5841,6.587,6.586,6.5742,6.5725,6.5709,6.5696,6.5872,6.5872,6.5984,6.5985,6.5986]}]]